www.pogodaiklimat.ru

Погода и климат >> Архив погоды >> Россия >> Кировская область >> Кумены


ПОГОДА в Кумене

  • Прогноз погоды в Кумене
  • Монитор погоды в Кумене
  • Климат города

АРХИВ ПОГОДЫ в Кумене

Время (UTC), дата Ветер
(напр.,м/с)
 
Видим.   Явления Облачность Т
(С)
Тd
(С)
f
(%)
Тe
(С)
Тes
(С)
Комфортность P
(гПа)
Po
(гПа)
Тmin
(С)
Tmax
(С)
R
(мм)
R24
(мм)
S
(см)
03 18.06 СЗ 1-1
{2}
20 км 4/0
[Ci fib]
+13.3 +7.6 68 +14 +17 1014.9 993.7 +8.3
06 18.06 СЗ 4-7
{7}
20 км 8/0
[Ci fib]
+21.5 +7.4 40 +22 +29 комфорт 1013.2 992.7
09 18.06 СЗ 5-8
{10}
20 км ясно +24.2 +4.6 28 +24 +32 комфорт 1011.6 991.4
12 18.06 С 6-9
{10}
20 км ясно +25.7 +4.8 26 +25 +29 комфорт 1011.2 991.0
15 18.06 С 4-6
{11}
20 км ясно +25.4 +6.1 29 +25 +26 комфорт 1010.5 990.3 +26.0
18 18.06 штиль 0
{6}
35 км ясно +20.2 +7.3 43 +21 +21 комфорт 1010.4 989.9
21 18.06 штиль 0
{1}
20 км 3/0
[Ci fib]
+13.7 +8.8 72 +13 +13 1011.1 990.1
00 19.06 штиль 0
{1}
35 км 4/0
[Ac trans]
+11.5 +8.6 82 +11 +11 1011.1 989.9
03 19.06 СЗ 1-1
{2}
35 км 3/0
[Ac trans Ci fib]
+16.7 +11.1 70 +18 +21 1010.2 989.4 +11.4
06 19.06 СЗ 1-2
{2}
20 км 8/0
[Ci fib]
+22.8 +11.9 50 +25 +36 комфорт 1009.6 989.3
09 19.06 СЗ 2-4
{6}
20 км 8/4 600 м
[Cu med, cong Ac trans Ci fib]
+25.6 +9.4 36 +26 +32 жарко 1008.7 988.5
12 19.06 СЗ 2-7
{7}
20 км 8/5 600 м
[Cu med, cong Ac trans Ci fib]
+27.2 +10.9 36 +28 +31 жарко 1006.8 986.9
15 19.06 СЗ 2-5
{7}
20 км 9/6 300 м
[Cb cap Ac trans Ci fib]
+24.8 +10.4 40 +26 +26 жарко 1005.9 985.8 +27.6
18 19.06 З 3-5
{7}
30 км 8/8 600 м
[Cb cap]
+21.5 +10.4 49 +23 +23 комфорт 1005.6 985.3
21 19.06 Ю 2-3
{9}
10 км 8/3 600 м
[Cb cap Ac trans]
+17.3 +11.0 66 +18 +18 1004.7 984.1
00 20.06 Ю 3-4
{4}
29 км 6/3 600 м
[Cb cap Ac trans Ci fib]
+15.8 +11.5 76 +15 +15 1002.8 982.2
03 20.06 Ю 2-3
{4}
30 км 8/0
[Ci fib]
+17.5 +13.2 76 +18 +21 1001.1 980.6 +15.6
06 20.06 Ю 2-3
{5}
26 км в посл. час ливневой дождь 10/10 1000 м
[Sc]
+18.1 +14.5 79 +19 +19 998.0 977.7
09 20.06 Ю 2-5
{12}
22 км слабый ливневой дождь {гроза} 10/10 600 м
[Cb cap]
+17.4 +15.0 86 +18 +18 995.4 975.0
12 20.06 -7
{14}
27 км {гроза, ливн. осадки} н/о +14.8 +11.4 80 +14 +14 996.9 976.3
15 20.06 З 6-10
{11}
24 км 6/3 1000 м
[Cb cap Ci fib]
+15.3 +5.5 52 +14 +14 997.3 976.7 +19.5 8
18 20.06 З 2-5
{14}
28 км 4/0
[Ac As Ci fib]
+11.6 +6.2 69 +11 +11 998.6 977.7
21 20.06 З 4-9
{9}
10 км 8/0
[Ac As Ci fib]
+10.4 +6.1 75 +8 +8 998.4 977.5
00 21.06 З 3-7
{9}
20 км 10/0
[Ac und]
+9.4 +6.1 80 +7 +7 998.3 977.3
03 21.06 З 4-9
{10}
18 км 10/10 600 м
[Sc]
+10.5 +6.7 77 +8 +8 997.1 976.2 +9.4
06 21.06 З 4-9
{11}
20 км 10/10 600 м
[Sc]
+11.8 +6.5 70 +10 +10 996.6 975.8
09 21.06 З 4-10
{11}
21 км слабый ливневой дождь 10/10 600 м
[Cb cap]
+10.5 +8.6 88 +8 +8 997.0 976.1
12 21.06 З 6-12
{13}
15 км ливневой дождь 10/10 300 м
[Cb cap]
+10.7 +9.3 91 +7 +7 997.9 977.0
15 21.06 З 6-12
{14}
18 км слабый ливневой дождь 10/10 300 м
[Cb cap]
+11.4 +10.0 91 +8 +8 999.6 978.7 +11.8 18
18 21.06 З 6-12
{14}
12 км {ливн. осадки} 10/10 300 м
[Cb cap]
+12.1 +10.2 88 +9 +9 1000.8 979.9
21 21.06 СЗ 3-6
{10}
10 км {ливн. осадки} 10/10 300 м
[Cb cap]
+12.3 +10.4 88 +11 +11 1002.3 981.4
00 22.06 СЗ 4-6
{9}
20 км {ливн. осадки} 10/0
[As op]
+12.6 +10.3 86 +11 +11 1004.4 983.4
03 22.06 СЗ 4-6
{7}
20 км 3/0
[Ci sp]
+12.6 +9.7 82 +11 +13 1005.7 984.7 +11.4 5
06 22.06 СЗ 6-10
{11}
20 км 4/0
[Ci fib]
+17.4 +8.6 56 +17 +21 1006.8 986.2
09 22.06 СЗ 6-11
{13}
20 км 3/0
[Ci fib]
+20.2 +7.6 44 +21 +27 комфорт 1007.8 987.4
12 22.06 З 1-4
{12}
20 км 8/0
[Ci fib]
+22.3 +6.7 36 +23 +32 комфорт 1008.7 988.3
15 22.06 СЗ 3-6
{11}
20 км 8/0
[Ci fib]
+22.5 +6.8 36 +23 +25 комфорт 1009.2 988.9 +23.5
18 22.06 СЗ 1-1
{6}
30 км 8/0
[Ac trans Ci sp]
+18.2 +6.8 47 +19 +19 1010.0 989.3
21 22.06 штиль 0
{2}
10 км 6/0
[Ci fib]
+12.4 +8.4 77 +12 +12 1010.9 989.8
00 23.06 ЮВ 1-1
{1}
35 км 3/0
[Ci fib]
+10.2 +8.0 86 +10 +10 1011.8 990.5
03 23.06 ЮЗ 1-1
{1}
20 км 3/0
[Ci fib]
+14.6 +8.5 67 +15 +19 1012.3 991.4 +9.5
06 23.06 З 2-3
{3}
20 км 4/0
[Ci fib]
+22.3 +12.5 54 +25 +35 комфорт 1011.7 991.4
09 23.06 СЗ 4-6
{7}
20 км 6/4 600 м
[Cu hum Ci fib]
+26.1 +12.9 44 +28 +34 жарко 1011.8 991.7
12 23.06 СЗ 3-5
{7}
20 км 8/4 600 м
[Cu hum Ac trans Ci fib]
+27.6 +14.3 44 +30 +33 жарко 1011.4 991.4
15 23.06 СЗ 2-3
{7}
20 км 8/0
[Ac trans Ci fib]
+27.0 +13.7 44 +29 +30 жарко 1011.3 991.3 +27.7
18 23.06 штиль 0
{4}
20 км 8/0
[Ac trans Ci fib]
+22.3 +14.1 60 +26 +26 жарко 1012.1 991.8
21 23.06 Ю 1-2
{2}
10 км 4/0
[Ci fib]
+18.7 +15.5 82 +21 +21 комфорт 1012.9 992.3
00 24.06 Ю 1-1
{2}
25 км 3/0
[Ac trans]
+16.7 +14.4 86 +18 +18 1014.0 993.1
03 24.06 ЮЗ 1-1
{1}
21 км ясно +19.6 +15.6 78 +23 +26 комфорт 1014.1 993.5 +16.2
06 24.06 СЗ 1-2
{3}
25 км 6/0
[Ac trans Ci sp]
+26.4 +18.2 61 +31 +39 душно 1014.2 994.1
09 24.06 З 1-3
{3}
24 км {дождь} 8/4 600 м
[Cu med, cong Ac trans Ci fib]
+28.8 +17.7 51 +33 +40 очень
душно
1014.1 994.2
12 24.06 З 1-2
{4}
27 км {дождь} 6/4 600 м
[Cu hum Ci fib]
+30.3 +17.0 45 +34 +40 очень
душно
1014.1 994.2
15 24.06 ЮЗ 1-3
{4}
26 км 6/3 600 м
[Cu med, cong Ci fib]
+30.9 +16.9 43 +34 +36 душно 1013.7 993.9 +31.0 0.0
18 24.06 Ю 1-1
{2}
20 км 6/1 600 м
[Cb cap Ac trans Ci fib]
+25.6 +17.5 61 +30 +30 душно 1014.8 994.6
21 24.06 ЮВ 1-1
{2}
20 км 8/0
[Ac trans Ci fib]
+20.3 +16.9 81 +24 +24 комфорт 1015.7 995.1

 

Местоположение метеостанции Кумены (Кировская область, Россия): широта 58.10 долгота 49.92 высота над уровнем моря 177 м.

В архиве по умолчанию представлена погода в Кумене за последнюю неделю. Архивные данные за месяц целиком и за предыдущие месяцы, начиная с января 2011 года, Вы можете получить, выбрав интересующий диапазон дат из раскрывающегося списка и нажав кнопку "Ввод!".


*Определитесь, кто Вы:
робот инопланетянин человек

Внимание! Время в таблицах - всемирное. Для получения местного времени необходимо прибавить поправку, которая в Кумене равна 3 ч.

Смотрите также архив погоды в соседних городах и на ближайших метеорологических станциях:

Погода в Кирове (Кировская область, Россия) (58 км)
Погода в Нолинске (Кировская область, Россия) (61 км)
Погода в Котельниче (Кировская область, Россия) (95 км)
Погода в Белой Холунице (Кировская область, Россия) (98 км)
Погода в Фаленках (Кировская область, Россия) (101 км)
Погода в Унях (Кировская область, Россия) (101 км)
Погода в Уржуме (Кировская область, Россия) (109 км)
Погода в Даровском (Кировская область, Россия) (136 км)
Погода в Новом Торьяле (Марий-Эл, Россия) (141 км)
Погода в Яранске (Кировская область, Россия) (144 км)

Пояснения к столбцам:

Ветер - указаны скорость ветра в м/с - средняя за 10 мин, порывы в срок и между сроками (в фигурных скобках) и направление, откуда дует ветер: С - северный, СВ - северо-восточный, В - восточный, ЮВ - юго-восточный, Ю - южный, ЮЗ - юго-западный, З - западный, СЗ - северо-западный.
Видимость - горизонтальная дальность видимости в метрах или километрах. При видимости от 1 до 10 км при отсутствии осадков обычно наблюдается дымка, при ухудшении видимости до 1 км и менее - туман. В сухую погоду видимость может ухудшаться дымом, пылью или мглою.
Явления - указаны атмосферные явления, наблюдавшиеся в срок или в последний час перед сроком; фигурными скобками обозначены явления, наблюдавшиеся между сроками (за 1-3 часа до срока); квадратными скобками обозначены град или гололедные отложения с указанием их диаметра в мм.
Облачность - указаны через наклонную черту общая и нижняя облачность в баллах и высота нижней границы облаков в метрах; квадратными скобками обозначены формы облаков: Ci - перистые, Cs - перисто-слоистые, Cc - перисто-кучевые, Ac - высококучевые, As - высокослоистые, Sc - слоисто-кучевые, Ns - слоисто-дождевые, Cu - кучевые, Cb - кучево-дождевые. Подробнее классификацию облаков см. в Атласе облаков (PDF).
T - Температура воздуха - температура, измеренная на высоте 2 м над землей.
Td - Температура точки росы - температура, при понижении до которой содержащийся в воздухе водяной пар достигнет насыщения.
f - Относительная влажность воздуха - влажноcть воздуха, измеренная на высоте 2 м над землей.
Te - Эффективная температура - температура, которую ощущает одетый по сезону человек в тени. Характеристика душности погоды. При расчете учитывается влияние влажности воздуха и скорости ветра на теплоощущения человека.
Tes - Эффективная температура на солнце - температура, которую ощущает человек, с поправкой на солнечный нагрев. Характеристика знойности погоды. Зависит от высоты солнца над горизонтом, облачности и скорости ветра. Ночью, в пасмурную погоду, а также при ветре 12 м/с и более поправка равна нулю.
P - Атмосферное давление - приведенное к уровню моря атмосферное давление.
Po - Атмосферное давление - измеренное на уровне метеостанции атмосферное давление.
Tmin - Минимальная температура - минимум температуры воздуха на высоте 2 м над землей.
Tmax - Максимальная температура - максимум температуры воздуха на высоте 2 м над землей.
R - Количество осадков - Количество выпавших осадков за период времени, мм. При наведении курсора мыши на число - период времени, за который выпало указанное количество осадков.
R24 - Количество осадков - Количество выпавших осадков за 24 часа, мм.
S - Снежный покров - Высота снежного покрова, см. При наведении курсора мыши на число - состояние снежного покрова и степень покрытия местности в баллах.